{"data":{"norad_id":67379,"epoch":"2026-09-20T21:08:45.194496Z","epoch_age_seconds":67444,"freshness":"FRESH","line1":"1 67379U 26004S   26263.88107864  .00000343  00000+0  45439-4 0  9993","line2":"2 67379  97.8089 260.6423 0000834 167.2227 192.9010 14.85898287 37495","mean_motion":14.85898287,"eccentricity":8.34e-5,"inclination_deg":97.8089,"raan_deg":260.6423,"arg_perigee_deg":167.2227,"mean_anomaly_deg":192.901,"bstar":4.5439e-5,"rev_number":3749,"period_min":96.911074775336,"perigee_km":610.18484868596,"apogee_km":611.35059799382,"semimajor_km":6988.9047233399,"source":"CELESTRAK","updated_at":"2026-09-21T09:00:16.595642Z"}}